Weather History for Georgetown, SC

Change the Weather History Date:

Tuesday, February 4, 2014

  Actual Average Record
Temperature  
Mean Temperature 48 °F -  
Max Temperature 53 °F 61 °F 71 °F (2012)
Min Temperature 44 °F 37 °F 28 °F (2013)
Degree Days  
Heating Degree Days 16    
Moisture  
Dew Point 44 °F    
Average Humidity 89    
Maximum Humidity 100    
Minimum Humidity 76    
Precipitation  
Precipitation 0.00 in - - ()
Sea Level Pressure  
Sea Level Pressure 30.21 in    
Wind  
Wind Speed 8 mph (NE)    
Max Wind Speed 14 mph    
Max Gust Speed 18 mph    
Visibility 8 miles    
Events Fog    
Averages and records for this station are not official NWS values.
T = Trace of Precipitation, MM = Missing Value Source: NWS Daily Summary

Daily Weather History Graph

Daily Weather History Graph

Search for Another Location

Airport:

Trip Planner

Search our weather history database for the weather conditions in past years. The results will help you decide how hot, cold, wet, or windy it might be!

Date:

Astronomy

Feb. 04, 2014 Rise Set
Actual Time 7:10 AM EST 5:51 PM EST
Civil Twilight 6:45 AM EST 6:17 PM EST
Nautical Twilight 6:15 AM EST 6:47 PM EST
Astronomical Twilight 5:46 AM EST 7:16 PM EST
Moon 10:06 AM EST (2/4) 11:23 PM EST (2/4)
Length of Visible Light 11h 32m
Length of Day
10h 41m
Waxing Crescent, 29% of the Moon is Illuminated
Feb 4
Waxing Crescent
Feb 6
First Quarter
Feb 14
Full
Feb 22
Last Quarter
Mar 1
New

Hourly Weather History & Observations

Time (EST) Temp. Windchill Dew Point Humidity Pressure Visibility Wind Dir Wind Speed Gust Speed Precip Events Conditions
12:15 AM 53.6 °F - 48.2 °F 82% 30.17 in 10.0 mi ENE 10.4 mph - N/A   Overcast
12:35 AM 51.8 °F - 46.4 °F 82% 30.19 in 10.0 mi ENE 9.2 mph - N/A   Overcast
12:55 AM 51.8 °F - 46.4 °F 82% 30.19 in 10.0 mi NE 9.2 mph - N/A   Overcast
1:15 AM 51.8 °F - 44.6 °F 76% 30.19 in 10.0 mi ENE 6.9 mph - N/A   Overcast
1:35 AM 51.8 °F - 44.6 °F 76% 30.19 in 10.0 mi NE 5.8 mph - N/A   Overcast
1:55 AM 51.8 °F - 44.6 °F 76% 30.19 in 10.0 mi ENE 6.9 mph - N/A   Overcast
2:15 AM 50.0 °F - 44.6 °F 82% 30.19 in 10.0 mi NE 6.9 mph - N/A   Overcast
2:35 AM 50.0 °F - 44.6 °F 82% 30.20 in 10.0 mi ENE 5.8 mph - N/A   Overcast
2:55 AM 50.0 °F - 44.6 °F 82% 30.21 in 10.0 mi ENE 10.4 mph - N/A   Overcast
3:15 AM 50.0 °F - 44.6 °F 82% 30.21 in 10.0 mi NE 8.1 mph - N/A   Overcast
3:35 AM 50.0 °F - 44.6 °F 82% 30.21 in 10.0 mi ENE 6.9 mph - N/A   Overcast
3:55 AM 50.0 °F - 42.8 °F 76% 30.21 in 10.0 mi ENE 9.2 mph - N/A   Overcast
4:15 AM 50.0 °F - 42.8 °F 76% 30.22 in 10.0 mi ENE 9.2 mph - N/A   Overcast
4:35 AM 48.2 °F - 42.8 °F 82% 30.22 in 10.0 mi ENE 10.4 mph 16.1 mph N/A   Overcast
4:55 AM 48.2 °F - 42.8 °F 82% 30.23 in 10.0 mi NE 9.2 mph 16.1 mph N/A   Overcast
5:15 AM 46.4 °F 41.5 °F 42.8 °F 87% 30.24 in 10.0 mi NE 10.4 mph 17.3 mph N/A   Overcast
5:35 AM 46.4 °F 40.4 °F 42.8 °F 87% 30.24 in 10.0 mi ENE 13.8 mph 17.3 mph N/A   Overcast
5:55 AM 46.4 °F 41.5 °F 42.8 °F 87% 30.26 in 10.0 mi NE 10.4 mph - N/A   Overcast
6:15 AM 46.4 °F 41.9 °F 42.8 °F 87% 30.26 in 10.0 mi ENE 9.2 mph 17.3 mph N/A   Overcast
6:35 AM 44.6 °F 40.2 °F 42.8 °F 93% 30.27 in 10.0 mi ENE 8.1 mph 17.3 mph N/A   Overcast
6:55 AM 44.6 °F 38.1 °F 41.0 °F 87% 30.27 in 10.0 mi ENE 13.8 mph 18.4 mph N/A   Overcast
7:15 AM 44.6 °F 40.2 °F 41.0 °F 87% 30.28 in 10.0 mi ENE 8.1 mph - N/A   Overcast
7:35 AM 44.6 °F 39.7 °F 41.0 °F 87% 30.29 in 10.0 mi NE 9.2 mph - N/A   Overcast
7:55 AM 44.6 °F 39.2 °F 41.0 °F 87% 30.29 in 10.0 mi NE 10.4 mph - N/A   Overcast
8:15 AM 44.6 °F 40.2 °F 41.0 °F 87% 30.29 in 10.0 mi NE 8.1 mph - N/A   Overcast
8:35 AM 44.6 °F 39.2 °F 41.0 °F 87% 30.30 in 10.0 mi NE 10.4 mph - N/A   Overcast
8:55 AM 44.6 °F 39.2 °F 41.0 °F 87% 30.30 in 10.0 mi ENE 10.4 mph - N/A   Overcast
9:15 AM 44.6 °F 38.8 °F 41.0 °F 87% 30.30 in 10.0 mi NE 11.5 mph 18.4 mph N/A   Overcast
9:35 AM 44.6 °F 38.8 °F 41.0 °F 87% 30.30 in 10.0 mi NE 11.5 mph - N/A   Overcast
9:55 AM 44.6 °F 38.8 °F 41.0 °F 87% 30.31 in 10.0 mi NE 11.5 mph - N/A   Overcast
10:15 AM 44.6 °F 39.2 °F 41.0 °F 87% 30.31 in 10.0 mi NE 10.4 mph - N/A   Overcast
10:35 AM 44.6 °F 39.2 °F 41.0 °F 87% 30.31 in 10.0 mi NE 10.4 mph - N/A   Overcast
10:55 AM 44.6 °F 39.7 °F 41.0 °F 87% 30.31 in 10.0 mi NE 9.2 mph - N/A   Overcast
11:15 AM 44.6 °F 39.7 °F 41.0 °F 87% 30.31 in 10.0 mi NE 9.2 mph - N/A   Overcast
11:35 AM 44.6 °F 40.7 °F 41.0 °F 87% 30.29 in 10.0 mi NE 6.9 mph - N/A   Overcast
11:55 AM 44.6 °F 40.2 °F 41.0 °F 87% 30.28 in 10.0 mi NE 8.1 mph - N/A   Overcast
12:15 PM 46.4 °F 42.4 °F 42.8 °F 87% 30.27 in 10.0 mi ENE 8.1 mph - N/A   Overcast
12:35 PM 46.4 °F 42.9 °F 42.8 °F 87% 30.26 in 10.0 mi ENE 6.9 mph - N/A   Overcast
12:55 PM 46.4 °F 42.9 °F 42.8 °F 87% 30.24 in 10.0 mi NE 6.9 mph - N/A   Overcast
1:15 PM 48.2 °F - 42.8 °F 82% 30.23 in 10.0 mi NE 6.9 mph - N/A   Overcast
1:35 PM 48.2 °F - 42.8 °F 82% 30.22 in 10.0 mi NNE 10.4 mph - N/A   Overcast
1:55 PM 48.2 °F - 42.8 °F 82% 30.21 in 10.0 mi NE 8.1 mph - N/A   Overcast
2:15 PM 48.2 °F - 44.6 °F 87% 30.21 in 10.0 mi NE 6.9 mph - N/A   Overcast
2:35 PM 48.2 °F - 44.6 °F 87% 30.20 in 10.0 mi ENE 9.2 mph - N/A   Overcast
2:55 PM 48.2 °F - 44.6 °F 87% 30.19 in 10.0 mi NNE 9.2 mph - N/A   Overcast
3:15 PM 48.2 °F - 44.6 °F 87% 30.19 in 10.0 mi NNE 9.2 mph - N/A   Overcast
3:35 PM 48.2 °F - 44.6 °F 87% 30.20 in 10.0 mi NNE 8.1 mph - N/A   Overcast
3:55 PM 48.2 °F - 44.6 °F 87% 30.19 in 10.0 mi NNE 6.9 mph - N/A   Overcast
4:15 PM 46.4 °F 42.9 °F 44.6 °F 93% 30.19 in 10.0 mi NE 6.9 mph - N/A   Overcast
4:35 PM 46.4 °F 42.9 °F 44.6 °F 93% 30.19 in 10.0 mi NE 6.9 mph - N/A   Overcast
4:55 PM 46.4 °F 42.9 °F 44.6 °F 93% 30.19 in 10.0 mi ENE 6.9 mph - N/A   Overcast
5:15 PM 46.4 °F 43.5 °F 44.6 °F 93% 30.19 in 10.0 mi ENE 5.8 mph - N/A   Overcast
5:35 PM 46.4 °F 42.9 °F 44.6 °F 93% 30.19 in 10.0 mi ENE 6.9 mph - N/A   Overcast
5:55 PM 46.4 °F 43.5 °F 44.6 °F 93% 30.18 in 10.0 mi ENE 5.8 mph - N/A   Overcast
6:15 PM 44.6 °F 41.4 °F 44.6 °F 100% 30.18 in 10.0 mi ENE 5.8 mph - N/A   Overcast
6:35 PM 44.6 °F 41.4 °F 44.6 °F 100% 30.18 in 10.0 mi ENE 5.8 mph - N/A   Overcast
7:15 PM 44.6 °F 41.4 °F 44.6 °F 100% 30.18 in 10.0 mi NE 5.8 mph - N/A   Overcast
7:35 PM 44.6 °F 40.7 °F 44.6 °F 100% 30.17 in 10.0 mi NE 6.9 mph - N/A   Overcast
7:55 PM 44.6 °F 40.7 °F 44.6 °F 100% 30.16 in 7.0 mi NE 6.9 mph - N/A   Overcast
8:15 PM 44.6 °F 40.7 °F 44.6 °F 100% 30.16 in 5.0 mi NNE 6.9 mph - N/A   Overcast
8:35 PM 44.6 °F 40.7 °F 44.6 °F 100% 30.16 in 5.0 mi NNE 6.9 mph - N/A   Overcast
8:55 PM 44.6 °F 41.4 °F 44.6 °F 100% 30.16 in 3.0 mi NE 5.8 mph - N/A   Overcast
9:15 PM 44.6 °F 43.1 °F 44.6 °F 100% 30.15 in 1.8 mi NE 3.5 mph - N/A   Overcast
9:35 PM 44.6 °F 43.1 °F 44.6 °F 100% 30.14 in 1.5 mi NE 3.5 mph - N/A   Overcast
9:55 PM 44.6 °F 43.1 °F 44.6 °F 100% 30.12 in 1.0 mi East 3.5 mph - N/A   Overcast
10:15 PM 44.6 °F 42.2 °F 44.6 °F 100% 30.12 in 0.8 mi NNE 4.6 mph - N/A   Overcast
10:35 PM 44.6 °F 43.1 °F 44.6 °F 100% 30.11 in 0.5 mi NE 3.5 mph - N/A Fog Fog
10:55 PM 44.6 °F - 44.6 °F 100% 30.12 in 0.5 mi Calm Calm - N/A Fog Fog
11:15 PM 44.6 °F - 44.6 °F 100% 30.10 in 0.5 mi Calm Calm - N/A Fog Fog
11:35 PM 44.6 °F 43.1 °F 44.6 °F 100% 30.09 in 0.2 mi East 3.5 mph - N/A Fog Fog
11:55 PM 44.6 °F - 44.6 °F 100% 30.08 in 0.2 mi Calm Calm - N/A Fog Fog